Temperature
22 23 23 22 22 22 22 22 21 21 21 21 20 20 20 19 19 19 18 18 18 17 17 17 16 16 16 16 16 15 15 15 15 15 15 15 15 14 14 14 14 14 14 13
21 22 22 22 22 22 22 22 21 21 20 20 20 19 19 19 18 18 18 17 17 17 17 16 16 16 16 16 15 15 15 15 15 15 14 14 14 14 14 14 14 13 13 13
20 21 21 20 21 21 21 21 20 20 19 19 19 18 18 18 17 17 16 16 16 16 16 16 16 16 15 15 15 15 15 15 14 14 14 14 14 14 14 13 13 13 13 13
19 19 19 20 21 21 20 20 20 20 19 19 18 18 17 17 17 16 16 16 16 16 16 16 16 15 15 15 15 15 15 14 14 14 14 14 14 14 13 13 13 13 13 13
19 18 19 20 20 20 19 19 19 19 18 18 18 18 17 16 16 16 15 15 15 15 15 15 15 15 15 15 15 14 14 14 14 14 14 14 13 13 13 13 13 13 13 12
18 18 18 19 19 19 19 18 18 18 18 17 17 16 16 16 15 15 15 15 14 15 15 14 15 14 14 14 14 14 14 14 14 13 13 13 13 13 13 13 13 12 12 12
17 18 18 18 18 19 17 17 17 17 17 17 16 16 16 15 15 14 14 14 14 14 14 14 14 14 14 14 13 13 13 13 13 13 13 13 13 13 12 12 12 12 12 12
18 17 17 18 18 17 17 16 16 16 16 15 15 15 15 15 14 14 14 14 14 14 14 13 13 13 13 13 13 13 13 13 13 13 13 12 12 12 12 12 12 12 11 11
18 17 17 17 17 16 16 16 15 15 15 14 14 14 14 14 14 14 13 13 13 13 13 13 13 13 13 13 13 13 13 13 13 12 12 12 12 12 12 11 11 11 11 11
17 17 17 17 16 15 15 15 14 14 14 14 13 14 14 14 13 13 13 13 12 12 12 12 12 12 12 12 12 12 12 12 12 12 12 12 11 11 11 11 11 11 11 11
17 17 17 16 15 15 14 14 14 13 13 13 13 13 13 13 13 13 12 12 12 12 12 12 12 12 12 12 12 12 12 12 12 11 11 11 11 11 11 11 11 11 11 11
15 16 16 15 15 14 14 13 13 13 13 13 13 12 12 13 12 12 12 12 11 11 11 11 11 11 11 11 11 11 11 11 11 11 11 11 11 11 10 10 10 10 10 10
15 15 15 14 14 14 13 13 13 12 12 12 12 12 12 12 12 12 11 11 11 11 11 11 10 10 10 11 11 11 11 11 11 11 11 10 10 10 10 10 10 10 10 10
14 14 14 14 13 13 13 12 12 12 12 12 12 11 11 11 11 11 11 10 10 10 10 10 10 10 10 10 10 10 10 10 10 10 10 10 10 10 10 10 9 9 9 9
14 14 13 13 13 12 12 12 11 11 11 11 11 11 11 10 10 10 10 10 10 10 10 9 9 9 9 9 9 9 9 9 9 9 9 9 9 9 9 9 9 9 9 9
13 13 13 13 12 12 12 11 11 11 11 10 10 10 10 10 10 10 9 9 9 9 9 9 9 9 9 8 9 8 8 9 9 9 9 9 8 8 8 8 8 8 8 8
12 12 12 12 12 12 11 11 11 10 10 10 10 10 10 9 9 9 9 9 9 9 9 8 8 8 8 8 8 8 8 8 8 8 8 8 8 8 8 8 8 8 7 7
12 12 12 12 11 11 11 10 10 10 10 10 9 9 9 9 9 9 8 8 8 8 8 8 8 8 8 8 7 7 7 7 7 7 7 7 7 7 7 7 7 7 7 7
11 11 11 11 11 11 10 10 10 10 9 9 9 9 9 8 8 8 8 8 8 8 8 8 7 7 7 7 7 7 6 6 7 7 7 7 7 7 7 7 7 7 6 6
11 11 10 10 10 10 10 9 9 9 9 9 8 8 8 8 8 8 7 7 7 7 7 7 7 7 7 6 6 6 6 6 6 6 6 6 6 6 6 6 6 6 6 6
10 10 10 10 10 9 9 9 9 8 8 8 8 8 8 7 7 7 7 7 7 7 7 7 6 6 6 6 6 5 5 5 5 5 5 5 5 5 5 5 5 5 5 5
10 9 9 9 9 9 8 8 8 8 8 8 8 7 7 7 7 7 7 7 6 6 6 6 6 6 6 5 5 5 5 5 4 4 4 4 4 4 4 4 4 4 4 4
9 9 9 8 8 8 8 8 8 8 8 7 7 7 7 6 6 6 6 6 6 6 6 6 6 5 5 5 5 5 4 4 4 4 4 4 4 4 4 4 4 3 3 3
8 8 8 8 8 8 8 7 7 7 7 7 6 6 6 6 6 6 6 5 5 5 5 5 5 5 5 5 4 4 4 4 3 3 3 3 3 3 3 3 3 3 3 3
8 8 8 8 7 7 7 7 7 6 6 6 6 6 5 5 5 5 5 5 5 5 5 5 5 5 4 4 4 4 3 3 3 3 3 3 3 3 3 2 2 2 2 2
7 7 7 7 7 7 6 6 6 6 5 5 5 5 5 5 5 4 4 4 4 4 4 4 4 4 4 4 3 3 3 3 3 2 2 2 2 2 2 2 2 2 2 2
6 6 6 6 6 6 6 6 5 5 5 5 4 4 4 4 4 4 4 4 4 4 3 3 3 3 3 3 3 3 3 2 2 2 2 2 2 2 2 2 2 2 2 2
Wind_Speed
12 11 9 9 10 9 10 10 9 7 5 3 3 3 3 3 4 4 3 1 2 3 3 3 3 3 2 2 2 3 3 3 3 3 2 2 3 2 2 2 3 3 3 3
12 12 12 12 10 11 10 10 10 8 5 3 3 3 4 4 4 4 3 3 2 1 2 2 3 3 2 2 2 2 3 3 2 3 3 2 2 3 2 3 3 2 2 3
11 11 11 11 8 7 6 5 6 5 2 3 3 4 4 4 5 5 5 4 4 3 1 1 1 2 2 2 2 2 2 1 1 1 2 2 2 2 3 3 3 3 3 2
9 9 11 3 3 2 1 1 3 2 3 3 2 1 2 4 5 5 4 4 4 3 3 2 1 0 0 2 2 1 1 1 1 1 1 1 2 3 4 3 3 3 3 3
6 9 9 5 1 1 3 2 1 2 3 4 3 1 2 4 5 4 4 3 3 3 3 3 2 1 0 1 1 1 1 1 1 1 1 2 3 3 3 3 3 3 3 3
7 8 7 1 3 4 2 2 2 3 3 2 3 2 2 4 5 5 5 4 4 3 3 2 2 2 0 1 1 1 1 2 2 2 2 2 3 3 2 3 3 2 2 3
10 10 4 1 2 1 2 2 4 4 3 3 2 2 3 4 4 4 4 4 4 3 3 3 3 2 1 1 1 1 1 2 2 2 2 2 2 1 2 2 2 2 2 2
7 8 3 2 1 1 3 4 4 4 4 4 4 3 3 4 4 4 4 4 4 3 3 3 3 2 2 2 2 1 2 2 2 2 2 2 2 2 2 2 3 3 3 3
2 1 3 3 3 4 4 3 3 4 4 5 5 5 3 3 3 3 4 4 4 4 3 3 3 3 3 3 2 2 2 2 2 2 2 2 3 3 2 3 3 3 3 3
5 2 1 2 3 3 3 3 4 4 4 4 5 5 5 3 3 2 3 4 3 3 3 4 4 4 4 3 2 2 2 2 2 2 2 2 2 2 2 3 3 3 3 3
7 4 2 0 2 2 3 3 4 5 5 5 5 5 5 4 3 2 2 3 3 3 3 4 4 4 4 5 3 2 3 3 2 2 2 2 2 2 2 2 3 4 4 4
6 4 4 2 2 2 2 3 4 4 5 5 5 6 6 5 3 2 2 2 3 3 3 4 4 4 4 4 4 3 3 3 2 2 2 2 2 1 0 1 2 3 3 3
6 5 5 4 2 2 3 4 4 5 5 5 5 5 5 4 3 3 3 3 3 3 3 4 4 4 5 4 4 3 3 2 2 1 1 1 2 2 2 1 1 1 3 3
4 3 4 4 3 2 3 4 5 5 4 4 4 4 4 4 4 3 3 3 3 3 3 3 3 4 4 5 4 4 3 3 2 1 1 1 2 2 2 2 2 1 2 3
5 4 5 3 3 3 3 4 4 4 5 4 2 3 3 3 4 4 4 3 3 3 3 3 3 3 4 4 5 5 3 2 2 1 2 2 2 2 1 1 1 1 1 1
4 4 5 4 4 4 4 4 4 4 4 4 3 2 3 3 3 3 4 3 3 4 4 3 3 3 3 4 5 4 3 4 3 2 2 2 2 2 1 1 1 1 2 2
5 5 5 5 4 4 4 4 4 4 4 3 3 2 3 3 3 3 3 4 3 3 3 3 3 3 3 3 3 3 3 3 4 3 2 2 2 2 2 2 2 2 2 2
5 5 5 5 4 4 4 4 4 4 3 3 2 2 3 3 3 3 4 4 4 3 3 3 3 3 3 3 3 2 3 2 2 2 2 2 2 2 2 2 2 2 1 1
3 3 4 4 4 4 4 4 3 3 2 2 2 3 3 3 3 3 3 4 4 4 4 3 4 3 3 3 3 2 3 3 2 2 2 2 2 2 1 1 1 2 1 1
4 4 4 4 4 4 3 3 3 3 3 3 3 3 3 4 3 3 3 3 3 3 3 4 3 3 3 3 3 2 3 3 3 2 2 2 2 2 2 2 1 1 1 1
4 4 4 4 4 4 3 3 3 4 3 3 3 3 4 4 4 4 3 3 3 2 3 4 3 2 2 3 4 2 3 3 3 2 2 2 2 2 2 2 2 1 1 1
4 4 3 3 3 3 3 3 4 4 3 3 3 3 4 4 4 4 4 3 2 3 3 2 2 3 4 4 2 2 3 3 3 2 2 2 2 2 2 2 2 2 1 1
4 4 4 4 4 4 4 4 4 4 3 3 4 4 4 4 4 4 4 2 1 3 3 2 4 6 6 3 2 3 3 3 3 2 2 2 2 2 3 3 2 2 2 2
5 5 5 4 4 4 4 4 3 3 3 3 3 4 3 3 4 3 2 2 3 4 3 4 6 7 6 3 2 3 3 3 3 3 3 2 2 3 3 3 2 2 2 2
5 4 4 4 4 3 4 3 3 3 3 2 3 3 3 2 3 2 2 3 4 5 3 4 6 7 4 3 3 3 3 3 3 3 3 3 3 3 3 3 3 3 3 2
4 4 4 4 3 3 2 2 2 2 2 2 2 2 2 2 2 2 2 3 3 5 4 3 3 4 3 3 3 3 3 3 3 3 3 3 3 3 3 3 4 3 3 3
4 4 3 3 3 2 2 2 2 2 2 3 3 2 2 2 2 3 3 3 3 3 3 3 3 3 2 2 2 3 3 2 2 2 3 3 3 3 3 3 3 3 3 3
Wind_Direction
281 290 293 288 280 270 266 273 279 289 294 335 37 26 1 42 42 44 23 26 97 121 144 160 172 173 171 179 181 173 181 210 218 204 202 209 193 185 181 190 210 214 210 204
280 279 282 283 275 272 268 273 280 280 281 3 36 28 24 34 36 28 24 48 57 106 140 177 178 175 186 187 192 187 198 220 217 209 204 203 188 180 185 199 211 212 216 205
279 285 284 266 266 264 265 283 286 285 311 40 34 13 19 22 25 37 22 17 19 7 334 205 203 201 192 191 183 195 193 202 209 221 213 195 196 194 191 196 202 207 212 203
275 278 266 266 31 7 281 296 340 351 43 41 354 340 42 40 31 23 16 12 1 352 350 339 311 67 168 190 182 185 168 197 224 220 214 196 193 203 203 204 200 204 214 209
268 270 266 256 296 306 272 268 23 354 18 13 338 294 60 41 31 17 6 0 352 349 347 342 347 7 169 236 194 162 162 226 235 213 205 210 210 208 209 211 211 205 203 207
261 267 272 325 45 359 286 241 56 44 23 351 334 307 351 14 15 18 14 5 1 357 353 354 346 357 21 261 268 228 213 219 223 206 200 214 219 214 217 211 207 204 202 198
253 259 264 62 53 345 289 29 37 30 16 13 355 360 358 11 15 22 8 3 2 3 2 350 345 344 297 276 264 265 254 236 217 195 192 204 200 207 210 200 191 198 200 202
247 254 246 96 52 20 47 44 23 17 11 6 9 10 17 12 10 10 4 360 360 359 358 344 336 339 311 283 266 251 237 220 210 203 201 205 185 207 207 196 197 201 200 208
292 325 71 60 52 44 36 21 4 2 7 357 350 347 346 352 353 359 353 345 350 350 344 339 339 329 306 301 286 254 246 226 217 214 206 199 190 196 204 200 203 204 202 209
282 229 135 87 64 50 27 14 1 352 342 334 325 328 330 335 331 342 341 336 341 338 337 339 336 329 324 313 296 276 257 241 224 221 219 203 190 192 199 203 202 201 206 213
271 274 275 320 31 42 20 2 341 331 323 316 316 317 317 315 313 324 323 328 332 324 326 327 328 332 331 327 317 283 265 254 232 218 211 203 193 198 203 206 202 205 209 202
269 281 287 295 356 353 327 317 316 314 310 307 303 306 310 308 320 330 326 321 316 322 326 323 326 330 326 326 323 309 288 274 266 229 207 200 190 193 260 220 212 205 199 200
283 300 301 294 285 302 303 303 305 303 298 305 313 314 311 310 324 330 323 317 314 322 324 324 326 328 331 332 326 312 301 300 298 287 250 220 207 201 224 306 355 226 207 204
284 286 281 282 278 288 285 294 301 301 305 307 320 327 323 320 324 326 320 315 318 318 314 322 329 331 334 333 329 314 309 312 309 279 268 251 242 233 221 214 224 269 254 219
260 259 261 264 260 266 274 278 287 295 302 311 323 323 327 328 325 323 322 319 321 318 319 323 327 332 337 330 319 313 309 307 302 287 269 257 253 246 240 238 227 223 203 217
262 262 253 244 242 253 259 264 273 284 297 308 312 311 320 324 315 312 319 325 319 313 314 318 320 329 333 322 314 312 309 313 316 295 273 260 248 245 240 235 233 221 218 205
250 255 255 251 246 252 256 261 270 281 289 296 303 311 309 307 306 311 318 319 307 300 306 312 317 330 331 327 319 309 308 302 309 305 290 276 265 253 238 228 237 240 238 214
249 257 263 254 251 258 264 266 271 276 283 300 302 289 286 292 302 315 321 322 318 311 311 312 332 336 328 327 318 308 309 304 296 292 293 293 289 272 253 241 242 248 260 229
253 261 275 265 254 254 256 264 275 282 283 278 282 290 299 302 302 303 310 314 314 316 320 332 334 330 320 314 316 289 294 299 301 300 296 295 296 299 291 259 252 245 225 204
264 265 272 270 262 258 257 259 266 270 274 277 278 286 296 303 307 300 295 298 299 300 313 328 323 307 303 308 318 291 282 287 290 294 305 310 306 302 298 290 274 261 251 222
263 266 269 268 262 260 258 257 259 262 265 266 269 276 283 291 296 296 290 288 292 319 321 322 321 304 301 311 302 290 286 286 282 281 286 288 287 284 290 295 295 286 271 254
270 267 265 269 263 258 260 265 262 260 262 267 274 282 285 285 287 288 283 273 274 307 308 302 302 304 309 307 282 283 284 283 280 275 273 277 281 283 284 288 288 291 293 283
284 279 270 264 262 260 261 263 260 257 261 266 269 274 280 286 284 280 281 283 281 298 298 286 295 304 303 293 276 272 275 273 271 271 272 271 271 274 274 274 277 278 271 271
271 269 267 263 260 257 258 260 263 263 266 270 271 270 273 279 280 283 289 294 290 287 286 284 289 292 288 267 262 267 271 272 271 270 271 271 272 272 270 268 265 265 260 262
272 271 266 257 253 252 255 260 265 264 270 272 278 285 288 281 279 288 291 290 288 286 280 283 290 291 282 265 259 258 263 268 272 274 270 271 269 268 268 268 264 264 265 263
273 269 263 255 253 253 252 257 265 270 275 277 281 288 294 296 295 296 288 287 291 294 291 287 287 281 276 280 276 267 260 266 272 272 272 275 269 267 266 268 269 269 270 268
270 265 260 258 251 244 245 248 251 257 264 269 276 282 290 294 296 298 297 296 298 296 297 296 295 295 290 286 283 280 278 276 275 273 278 282 285 282 277 275 275 277 277 270
Height
1484 1480 1480 1481 1481 1481 1485 1486 1490 1488 1488 1486 1485 1486 1487 1486 1486 1486 1487 1487 1489 1490 1491 1493 1494 1495 1496 1497 1498 1499 1501 1502 1503 1503 1504 1505 1506 1507 1507 1508 1509 1510 1511 1512
1486 1480 1479 1481 1480 1480 1480 1482 1483 1484 1486 1485 1486 1486 1487 1487 1487 1487 1487 1487 1488 1489 1490 1492 1492 1493 1494 1494 1496 1497 1498 1499 1500 1500 1501 1502 1502 1503 1504 1505 1505 1506 1507 1508
1491 1483 1482 1485 1479 1479 1480 1480 1482 1486 1487 1485 1486 1487 1487 1488 1487 1487 1488 1487 1488 1488 1489 1490 1491 1491 1492 1492 1493 1494 1495 1496 1496 1497 1498 1498 1499 1500 1500 1501 1502 1503 1504 1504
1490 1490 1497 1483 1474 1475 1479 1480 1481 1481 1483 1485 1486 1487 1488 1488 1488 1488 1488 1487 1487 1487 1488 1488 1489 1489 1490 1490 1491 1491 1492 1493 1493 1494 1494 1495 1495 1496 1497 1497 1498 1499 1499 1500
1491 1493 1486 1478 1476 1477 1480 1482 1481 1482 1483 1485 1485 1485 1487 1488 1488 1488 1487 1487 1486 1486 1486 1486 1486 1487 1487 1488 1489 1489 1489 1489 1490 1491 1491 1491 1492 1492 1493 1494 1494 1495 1495 1496
1491 1495 1493 1482 1477 1476 1479 1485 1482 1482 1484 1485 1485 1487 1488 1487 1487 1486 1486 1485 1485 1484 1484 1484 1484 1485 1485 1485 1486 1486 1486 1486 1487 1488 1488 1488 1488 1489 1490 1490 1491 1491 1492 1493
1490 1490 1483 1479 1478 1478 1488 1489 1484 1484 1485 1485 1486 1488 1488 1486 1486 1486 1485 1484 1483 1483 1483 1483 1483 1483 1483 1483 1483 1483 1484 1484 1484 1484 1484 1484 1485 1485 1486 1487 1487 1488 1488 1489
1484 1488 1488 1480 1480 1483 1486 1485 1485 1485 1486 1486 1486 1486 1486 1486 1485 1485 1484 1483 1483 1482 1481 1481 1481 1481 1481 1481 1481 1481 1481 1481 1481 1481 1481 1481 1481 1482 1482 1483 1483 1484 1484 1485
1481 1484 1481 1481 1482 1484 1484 1485 1486 1486 1486 1486 1486 1486 1485 1485 1484 1484 1483 1482 1482 1481 1480 1480 1480 1479 1479 1478 1478 1478 1478 1477 1478 1478 1478 1478 1478 1478 1479 1479 1479 1480 1480 1481
1479 1478 1480 1481 1482 1484 1485 1485 1486 1486 1486 1486 1485 1484 1484 1483 1483 1482 1482 1481 1480 1480 1479 1478 1478 1477 1477 1476 1476 1475 1475 1474 1474 1474 1474 1475 1475 1475 1475 1475 1475 1476 1476 1477
1478 1478 1479 1480 1482 1483 1484 1484 1485 1485 1485 1484 1484 1483 1482 1481 1481 1480 1480 1479 1479 1478 1477 1476 1476 1475 1474 1473 1473 1472 1472 1471 1471 1471 1471 1471 1471 1471 1471 1471 1472 1472 1472 1473
1478 1478 1479 1479 1481 1482 1483 1483 1483 1483 1483 1482 1482 1481 1480 1479 1478 1477 1477 1477 1476 1476 1475 1474 1473 1472 1471 1470 1470 1469 1468 1468 1468 1467 1467 1467 1467 1467 1467 1468 1468 1469 1469 1470
1476 1476 1477 1478 1479 1480 1481 1481 1481 1481 1480 1479 1479 1478 1477 1476 1476 1475 1475 1474 1473 1473 1472 1472 1470 1469 1468 1467 1466 1466 1465 1465 1464 1464 1463 1463 1463 1463 1463 1463 1464 1464 1465 1465
1474 1475 1475 1476 1477 1477 1478 1478 1478 1478 1477 1477 1476 1475 1475 1474 1473 1473 1472 1471 1470 1470 1469 1469 1468 1467 1465 1464 1463 1463 1462 1461 1461 1460 1460 1460 1459 1459 1459 1459 1459 1459 1460 1461
1472 1473 1473 1473 1474 1475 1475 1475 1475 1475 1474 1474 1473 1473 1472 1471 1471 1470 1469 1468 1467 1467 1466 1465 1465 1464 1462 1461 1460 1459 1459 1458 1458 1457 1457 1456 1456 1456 1456 1456 1455 1455 1455 1456
1469 1470 1470 1470 1471 1471 1472 1472 1472 1472 1471 1471 1470 1470 1469 1468 1468 1467 1466 1465 1464 1463 1463 1462 1461 1460 1459 1458 1457 1457 1456 1455 1454 1454 1453 1452 1452 1452 1452 1452 1451 1451 1451 1451
1466 1466 1467 1467 1467 1468 1468 1468 1468 1468 1468 1468 1467 1467 1466 1466 1465 1464 1463 1462 1461 1460 1459 1459 1458 1457 1456 1455 1455 1454 1453 1452 1451 1450 1449 1449 1448 1448 1448 1448 1448 1448 1448 1448
1462 1463 1463 1464 1464 1464 1465 1465 1465 1465 1465 1464 1464 1464 1463 1463 1462 1461 1461 1460 1459 1457 1457 1456 1455 1453 1453 1452 1451 1450 1449 1448 1447 1447 1446 1445 1445 1445 1444 1444 1444 1444 1444 1444
1459 1459 1460 1460 1460 1461 1461 1462 1462 1462 1462 1461 1461 1461 1460 1460 1459 1458 1458 1457 1455 1454 1453 1453 1452 1450 1449 1448 1447 1446 1446 1445 1444 1443 1443 1442 1441 1441 1441 1441 1440 1440 1440 1440
1456 1456 1456 1457 1457 1458 1458 1458 1458 1458 1458 1458 1458 1458 1457 1457 1456 1456 1455 1454 1453 1451 1450 1449 1448 1447 1445 1444 1443 1442 1442 1441 1440 1440 1439 1438 1438 1438 1437 1437 1437 1437 1436 1436
1452 1453 1453 1453 1454 1454 1454 1455 1455 1455 1455 1455 1455 1454 1454 1453 1453 1452 1451 1450 1449 1448 1447 1446 1444 1443 1442 1441 1440 1439 1438 1437 1436 1436 1435 1435 1434 1434 1434 1434 1433 1433 1433 1432
1450 1450 1450 1450 1450 1450 1451 1451 1451 1451 1451 1451 1451 1451 1450 1450 1449 1449 1448 1447 1445 1444 1443 1441 1440 1439 1438 1437 1436 1434 1434 1433 1432 1432 1431 1431 1431 1430 1430 1430 1430 1429 1429 1429
1447 1447 1447 1447 1447 1447 1447 1448 1448 1448 1447 1447 1447 1447 1446 1446 1445 1444 1443 1443 1441 1440 1439 1437 1436 1435 1434 1433 1432 1431 1430 1429 1428 1428 1428 1427 1427 1427 1426 1426 1425 1425 1425 1425
1444 1443 1443 1443 1443 1443 1443 1444 1444 1443 1443 1443 1443 1442 1442 1441 1440 1440 1439 1438 1437 1436 1434 1433 1432 1430 1429 1428 1428 1427 1426 1425 1425 1424 1424 1423 1423 1422 1422 1422 1421 1421 1421 1420
1440 1440 1440 1440 1440 1440 1440 1440 1440 1439 1439 1438 1438 1438 1437 1437 1436 1435 1434 1433 1432 1431 1430 1429 1428 1426 1425 1424 1423 1422 1422 1421 1420 1420 1419 1419 1418 1418 1417 1417 1417 1416 1416 1415
1437 1437 1436 1436 1436 1436 1436 1436 1435 1435 1435 1434 1434 1434 1433 1432 1431 1430 1430 1429 1428 1427 1426 1424 1423 1422 1421 1420 1419 1418 1417 1417 1416 1416 1415 1414 1414 1413 1413 1412 1412 1411 1411 1410
1433 1432 1432 1432 1432 1432 1432 1432 1431 1431 1431 1431 1430 1429 1429 1428 1427 1426 1425 1424 1424 1423 1422 1420 1419 1418 1417 1416 1415 1414 1413 1412 1412 1411 1410 1410 1409 1409 1408 1407 1407 1406 1406 1406